Wind_Speed
13 11 9 8 7 5 3 1 1 3 3 5 6 7 7 7 7 8 9 9 9 9 9 9 9 9 9 9 9 8 8 8 8 8 7 7 8 8 8 7 7 8 7 7
15 13 11 10 9 7 5 3 1 0 1 2 3 4 5 5 5 5 6 6 7 8 8 8 8 8 8 8 7 7 7 7 7 7 7 7 8 8 7 7 7 7 7 6
17 15 14 13 12 10 8 6 4 3 3 2 2 3 3 3 3 4 4 4 4 6 6 7 7 6 6 6 7 7 7 7 6 6 6 7 7 7 7 7 6 6 6 5
20 18 17 16 15 13 11 9 8 6 5 5 4 3 2 2 2 2 2 3 4 3 4 5 5 5 5 5 5 6 6 6 6 6 5 5 6 6 6 6 6 5 5 6
21 21 20 19 16 15 13 13 11 9 8 8 7 5 4 3 2 1 2 2 2 2 3 3 3 4 4 4 5 5 5 5 5 5 5 5 5 5 5 5 6 6 6 6
22 22 22 21 19 18 17 15 14 13 12 11 9 8 5 4 2 2 2 1 2 2 2 2 3 4 4 4 5 5 6 5 4 4 4 4 4 5 5 5 6 6 6 7
24 23 23 22 21 20 19 18 17 16 15 14 12 11 8 5 4 3 3 2 3 3 2 2 2 3 3 3 4 5 5 5 4 4 4 5 5 5 6 6 7 7 7 8
24 24 24 23 22 22 21 20 20 19 18 16 15 14 10 7 5 5 5 4 5 5 3 2 2 2 3 3 3 4 5 5 5 5 5 6 7 7 8 8 8 8 9 9
25 23 23 23 23 23 23 22 21 21 20 19 17 15 12 9 7 7 7 6 5 5 5 4 4 4 4 3 4 4 5 5 5 5 6 7 7 8 8 9 10 10 9 10
25 24 23 22 23 24 24 23 24 23 22 21 19 16 13 10 9 9 9 8 6 6 6 6 5 5 5 5 5 5 5 6 6 6 6 7 8 8 8 9 11 10 10 10
25 24 23 22 23 24 24 24 25 24 23 22 20 17 14 12 10 10 10 10 8 8 8 7 7 7 7 7 7 6 6 7 7 7 7 8 8 8 9 10 11 11 11 11
26 25 24 23 23 23 25 25 24 25 24 23 22 19 16 14 12 11 11 11 10 10 10 9 8 8 8 8 8 8 8 8 8 8 9 9 9 10 11 12 12 12 12 12
25 26 25 24 24 24 25 25 25 25 24 24 24 21 18 17 15 13 13 12 12 11 11 10 9 9 9 10 10 9 9 10 9 9 10 10 10 11 12 12 13 13 13 13
27 27 27 25 25 25 26 26 26 26 26 25 24 22 19 19 17 15 14 13 12 12 12 12 11 11 11 12 12 11 11 11 11 11 12 12 12 13 13 13 14 14 14 14
28 28 28 27 26 26 26 26 27 26 26 25 24 24 21 21 19 17 16 15 14 14 13 13 13 13 13 13 13 13 13 12 12 13 13 14 14 14 14 15 15 15 15 15
29 29 28 28 28 27 27 27 27 27 27 25 25 23 22 22 20 19 18 18 17 15 15 16 15 14 14 14 15 14 14 14 14 14 15 15 15 15 15 15 16 16 16 16
30 29 29 29 29 29 29 28 28 27 27 27 25 24 23 23 22 20 20 20 19 18 17 17 16 16 16 16 16 16 16 16 16 16 16 16 16 16 16 16 17 17 17 18
32 31 30 29 30 32 30 30 30 29 29 28 27 25 25 25 24 23 21 21 20 20 19 18 18 19 19 19 18 18 18 17 17 17 17 17 17 17 17 18 18 18 19 19
34 33 32 32 32 32 32 31 31 31 30 29 29 27 26 25 25 24 22 21 21 21 22 21 20 20 20 21 21 20 20 19 19 18 18 18 19 19 19 19 20 20 20 21
35 35 35 34 34 33 32 31 32 32 32 31 30 28 27 26 26 24 23 23 22 22 22 22 22 21 21 21 21 22 20 21 21 21 20 20 20 20 20 21 21 22 22 23
35 35 35 35 35 34 33 31 32 32 31 31 31 29 29 27 26 25 26 25 24 24 24 25 25 24 23 23 22 22 21 21 21 22 22 22 22 22 22 23 24 24 24 25
35 36 36 36 36 34 33 32 33 32 32 32 31 30 30 29 27 27 27 27 27 26 26 27 26 26 25 25 24 23 23 23 23 23 23 23 23 23 23 24 25 26 26 26
36 36 36 37 36 35 34 33 33 33 33 33 32 32 31 31 30 29 29 28 27 27 28 27 27 27 27 26 25 25 24 25 25 25 24 24 25 24 25 26 26 26 27 27
37 36 37 38 36 35 35 34 34 34 34 34 34 34 34 33 33 32 31 30 29 29 28 28 28 29 29 28 27 26 26 26 27 26 25 26 26 26 27 26 26 27 27 27
37 38 38 38 37 36 37 36 36 35 34 35 35 35 34 34 34 33 31 30 30 30 29 29 28 28 28 26 26 28 28 28 28 27 26 27 27 27 28 27 27 28 28 28
35 36 37 38 39 39 37 36 36 36 35 35 34 34 34 34 34 34 33 32 31 30 29 29 28 28 28 27 27 28 28 29 29 28 28 28 28 28 29 28 28 28 29 29
Wind_Direction
212 211 212 216 215 198 203 178 112 88 71 57 51 52 51 53 55 57 65 70 72 70 69 71 72 73 72 70 70 67 66 67 68 66 61 55 55 51 48 47 40 38 35 31
214 214 217 218 218 212 212 209 220 273 7 43 39 41 40 49 51 51 57 63 73 73 65 62 65 69 70 69 65 60 58 57 59 57 55 54 53 50 45 40 36 37 32 30
216 215 217 218 221 220 216 221 235 257 276 296 322 354 9 38 41 52 50 47 61 67 63 58 57 62 68 67 65 62 57 56 59 56 52 53 49 43 39 34 33 29 23 20
220 218 219 220 223 226 224 228 235 244 257 278 288 301 322 351 16 36 36 44 51 50 46 49 48 50 56 59 62 62 56 54 55 50 45 41 36 33 29 27 22 16 13 10
220 220 221 222 224 230 233 236 238 240 251 265 275 284 290 285 301 332 353 17 22 14 7 21 32 34 33 50 55 54 52 48 48 44 33 28 29 25 22 19 14 5 358 355
221 222 223 224 225 229 235 238 239 239 247 253 266 273 277 268 270 275 286 298 327 317 325 341 11 19 26 42 44 40 33 29 30 33 24 15 11 8 4 359 357 354 349 343
222 223 223 224 225 229 234 238 241 243 248 254 259 263 270 271 263 267 261 264 286 286 287 304 334 3 10 11 11 13 10 11 6 8 8 360 350 347 346 345 344 342 339 335
224 223 224 227 228 230 233 238 242 246 251 254 255 258 263 264 261 265 260 263 275 272 273 280 291 321 333 338 341 343 349 351 349 347 352 352 350 346 343 342 340 337 334 331
225 226 227 231 233 233 234 237 241 246 250 251 252 255 258 259 265 268 270 270 269 258 259 261 276 293 303 304 311 321 328 334 334 336 338 341 344 341 337 337 338 335 333 334
228 229 229 233 234 234 235 235 237 242 245 249 253 253 257 257 260 267 274 273 268 254 255 264 273 277 287 295 301 306 310 314 319 321 324 330 338 337 333 329 331 333 332 332
230 230 229 230 232 232 233 235 238 240 242 248 253 255 257 259 262 267 269 272 268 262 265 270 275 280 288 295 297 302 300 303 307 312 316 321 328 332 328 327 327 327 323 322
232 232 229 228 230 231 232 234 237 240 243 248 253 256 255 255 259 265 267 269 269 267 269 271 271 277 285 291 295 300 296 299 302 304 310 312 320 327 327 324 322 321 317 314
232 234 232 230 230 231 233 235 236 238 243 248 252 256 254 254 256 263 265 268 269 267 267 268 273 279 282 284 288 293 297 299 302 305 306 306 310 317 319 319 319 317 314 311
236 237 237 236 236 236 237 238 238 240 244 247 251 255 255 255 258 261 263 264 269 268 268 269 272 277 279 282 287 289 291 294 297 301 301 302 303 308 311 314 313 312 309 309
237 238 238 238 237 237 239 239 239 240 244 247 251 253 253 255 257 261 264 264 267 268 267 269 272 274 275 278 282 287 289 290 292 294 295 296 299 303 306 308 307 306 305 305
238 240 238 238 237 237 237 238 239 241 243 246 251 252 250 254 258 262 266 266 264 266 267 267 267 271 274 277 281 285 287 288 288 289 290 292 295 298 301 304 305 303 302 303
238 240 239 239 237 237 238 239 242 243 244 246 249 251 251 254 259 264 266 266 266 264 266 270 272 269 273 277 280 281 283 284 286 288 289 291 293 295 299 301 304 302 300 300
239 239 240 241 239 240 240 241 243 243 244 246 248 252 253 254 259 264 266 264 265 263 264 267 269 269 269 272 276 278 279 282 284 285 286 288 289 291 294 297 298 300 300 299
239 240 241 242 243 243 242 243 244 245 245 247 249 251 254 255 258 262 264 263 262 263 264 265 266 268 270 272 274 275 277 280 281 282 283 285 286 288 289 292 295 296 296 297
239 241 242 244 245 245 243 245 246 246 246 247 249 250 252 254 256 258 260 261 261 263 262 263 263 265 268 272 274 273 276 279 278 279 280 282 284 286 287 288 291 293 296 297
241 242 244 244 245 245 243 244 246 246 247 248 250 251 252 253 254 256 258 258 259 260 261 261 261 263 266 270 274 277 277 280 281 281 281 282 284 285 287 289 291 294 296 296
242 243 244 245 245 245 244 244 245 247 247 249 250 251 252 253 254 254 255 256 257 259 261 262 262 262 265 267 272 276 279 280 280 281 283 285 285 286 288 290 291 292 294 295
242 242 244 245 246 246 245 244 245 247 248 248 249 250 252 253 254 254 255 256 258 259 261 262 262 262 264 265 269 273 276 279 279 280 282 284 284 285 289 291 290 291 292 293
243 243 244 246 246 246 245 246 246 248 249 249 248 249 250 252 252 253 254 258 260 259 261 262 261 262 264 264 268 270 274 276 278 279 281 284 285 287 288 292 291 292 293 294
244 245 245 245 245 245 246 246 246 247 248 249 249 250 251 252 253 253 254 257 258 258 258 260 261 264 263 266 270 271 272 274 276 278 280 282 284 287 290 292 294 294 294 295
244 246 246 245 245 245 244 245 246 246 247 249 249 249 250 251 252 252 254 256 257 257 258 258 259 261 264 267 269 272 274 275 276 278 279 281 283 285 288 290 292 293 294 294
Height
5900 5902 5903 5904 5905 5906 5906 5906 5907 5907 5907 5906 5906 5906 5905 5905 5905 5904 5904 5903 5903 5902 5901 5901 5900 5900 5899 5899 5898 5898 5898 5897 5897 5896 5896 5895 5895 5894 5894 5893 5892 5892 5891 5890
5899 5900 5902 5902 5904 5905 5906 5907 5907 5907 5907 5907 5907 5907 5906 5906 5906 5906 5905 5904 5904 5903 5903 5902 5902 5901 5901 5900 5900 5900 5899 5899 5898 5898 5897 5897 5896 5896 5895 5894 5893 5892 5891 5891
5896 5899 5899 5901 5902 5904 5905 5906 5907 5907 5907 5907 5907 5908 5907 5907 5907 5906 5906 5905 5905 5904 5904 5904 5903 5902 5902 5901 5901 5901 5900 5900 5899 5899 5898 5898 5897 5896 5896 5895 5894 5893 5892 5891
5892 5895 5897 5898 5900 5902 5904 5905 5906 5906 5906 5906 5907 5907 5907 5907 5907 5907 5906 5906 5905 5905 5905 5904 5904 5904 5903 5902 5902 5901 5901 5900 5900 5899 5899 5898 5897 5897 5896 5895 5894 5893 5892 5891
5888 5891 5893 5896 5898 5900 5902 5903 5904 5904 5905 5906 5906 5907 5908 5907 5907 5907 5907 5906 5906 5905 5905 5905 5904 5904 5904 5903 5903 5902 5902 5901 5900 5900 5899 5898 5897 5897 5896 5895 5894 5893 5892 5891
5884 5887 5889 5892 5895 5897 5899 5901 5901 5902 5903 5904 5905 5905 5906 5906 5907 5907 5907 5906 5906 5906 5905 5905 5905 5904 5904 5903 5903 5903 5902 5901 5901 5900 5899 5898 5897 5897 5896 5895 5894 5893 5892 5891
5881 5883 5886 5888 5891 5893 5895 5898 5899 5900 5900 5902 5904 5903 5905 5906 5906 5907 5907 5906 5906 5905 5905 5905 5904 5904 5903 5903 5903 5902 5902 5901 5901 5900 5899 5898 5897 5896 5896 5895 5893 5892 5891 5890
5876 5880 5882 5884 5887 5890 5891 5894 5896 5898 5899 5900 5901 5901 5904 5905 5905 5906 5906 5905 5905 5904 5904 5904 5904 5903 5903 5903 5902 5902 5901 5901 5900 5899 5898 5897 5896 5896 5895 5893 5892 5891 5890 5888
5871 5875 5878 5880 5882 5885 5887 5890 5893 5895 5896 5897 5898 5899 5901 5902 5903 5904 5904 5904 5903 5903 5903 5903 5903 5903 5902 5902 5901 5901 5900 5900 5899 5898 5897 5896 5896 5895 5894 5892 5891 5890 5888 5887
5867 5870 5873 5875 5877 5880 5883 5886 5889 5890 5892 5893 5895 5896 5899 5900 5901 5902 5902 5902 5902 5901 5901 5901 5901 5901 5901 5900 5900 5899 5899 5898 5898 5897 5896 5895 5894 5893 5892 5891 5890 5888 5886 5885
5862 5866 5869 5870 5872 5875 5878 5881 5883 5886 5888 5890 5891 5896 5897 5898 5899 5899 5900 5900 5899 5899 5899 5899 5899 5899 5899 5899 5898 5898 5897 5897 5896 5896 5895 5894 5893 5891 5890 5889 5887 5886 5884 5883
5858 5861 5864 5866 5868 5871 5874 5877 5880 5882 5884 5886 5888 5893 5894 5895 5896 5896 5897 5897 5897 5897 5897 5897 5897 5896 5897 5897 5896 5896 5895 5895 5894 5893 5893 5892 5891 5889 5888 5886 5885 5884 5882 5880
5853 5856 5859 5862 5866 5867 5869 5872 5875 5878 5880 5882 5884 5889 5890 5891 5892 5893 5894 5894 5894 5894 5894 5894 5894 5894 5894 5894 5894 5893 5893 5892 5891 5891 5890 5889 5888 5887 5885 5884 5882 5881 5879 5878
5849 5851 5855 5858 5860 5863 5865 5868 5871 5873 5875 5877 5880 5883 5886 5887 5888 5889 5890 5891 5891 5891 5891 5891 5891 5891 5891 5891 5891 5890 5890 5889 5888 5888 5887 5886 5885 5884 5882 5881 5879 5878 5876 5875
5843 5845 5848 5852 5855 5858 5860 5863 5866 5868 5871 5873 5876 5879 5882 5883 5885 5886 5886 5887 5888 5888 5888 5888 5888 5888 5887 5887 5887 5887 5886 5886 5885 5884 5884 5883 5881 5880 5879 5877 5876 5874 5872 5871
5837 5840 5843 5846 5849 5852 5855 5858 5861 5863 5866 5869 5871 5874 5877 5878 5880 5881 5882 5883 5883 5884 5884 5884 5884 5884 5883 5883 5883 5883 5882 5882 5882 5881 5880 5879 5878 5876 5875 5873 5871 5870 5868 5867
5831 5834 5837 5840 5843 5846 5849 5852 5855 5858 5860 5864 5866 5869 5870 5873 5874 5876 5877 5878 5879 5879 5880 5880 5880 5879 5879 5879 5879 5878 5878 5877 5877 5876 5875 5874 5873 5872 5871 5869 5867 5865 5864 5863
5824 5827 5831 5834 5838 5840 5845 5847 5849 5851 5854 5857 5860 5862 5864 5867 5869 5870 5871 5872 5873 5874 5874 5875 5875 5875 5874 5874 5874 5873 5873 5872 5871 5871 5870 5869 5868 5867 5866 5864 5863 5861 5859 5857
5817 5820 5823 5827 5829 5833 5837 5840 5842 5845 5848 5851 5854 5856 5858 5860 5862 5864 5865 5866 5867 5867 5868 5868 5869 5869 5869 5869 5868 5868 5868 5867 5866 5865 5865 5864 5863 5862 5860 5859 5858 5856 5854 5852
5809 5813 5816 5819 5822 5825 5831 5833 5835 5839 5841 5844 5847 5849 5851 5853 5856 5858 5859 5860 5860 5861 5862 5862 5863 5863 5863 5862 5862 5862 5862 5861 5860 5859 5859 5858 5857 5856 5854 5853 5852 5850 5848 5846
5801 5804 5807 5811 5813 5817 5823 5826 5829 5833 5836 5837 5839 5842 5844 5846 5849 5851 5851 5853 5854 5855 5855 5855 5856 5857 5857 5856 5856 5856 5856 5855 5854 5853 5852 5851 5850 5849 5848 5847 5845 5844 5842 5839
5793 5796 5800 5802 5806 5812 5815 5818 5822 5825 5827 5829 5832 5834 5837 5839 5841 5842 5843 5845 5846 5848 5848 5849 5849 5850 5850 5850 5850 5849 5849 5848 5847 5846 5845 5844 5843 5842 5841 5840 5838 5836 5835 5832
5784 5789 5791 5795 5800 5803 5806 5810 5813 5816 5819 5821 5824 5826 5828 5831 5833 5835 5836 5837 5838 5840 5841 5841 5842 5842 5842 5842 5842 5842 5842 5841 5840 5839 5839 5838 5836 5835 5834 5832 5830 5829 5827 5825
5775 5779 5782 5786 5790 5794 5797 5801 5804 5807 5810 5812 5815 5818 5820 5822 5824 5826 5828 5829 5831 5832 5833 5833 5834 5835 5835 5834 5834 5834 5834 5833 5833 5832 5832 5831 5829 5828 5826 5824 5823 5821 5819 5817
5767 5769 5772 5776 5781 5784 5788 5791 5795 5798 5801 5803 5806 5808 5811 5813 5815 5817 5819 5821 5822 5823 5824 5825 5826 5826 5826 5826 5826 5826 5826 5826 5825 5825 5824 5823 5822 5821 5819 5817 5815 5813 5811 5809
5758 5761 5764 5767 5771 5774 5778 5782 5785 5788 5791 5794 5797 5799 5802 5804 5806 5808 5810 5811 5813 5814 5815 5816 5817 5818 5818 5818 5819 5818 5818 5818 5817 5817 5816 5815 5814 5813 5811 5810 5808 5806 5804 5801